Weather History for Tacoma, WA

Change the Weather History Date:

Wednesday, January 8, 2014

  Actual Average Record
Temperature  
Mean Temperature 44 °F -  
Max Temperature 50 °F 43 °F 54 °F (1995)
Min Temperature 39 °F 32 °F 6 °F (1973)
Degree Days  
Heating Degree Days 20    
Moisture  
Dew Point 45 °F    
Average Humidity 100    
Maximum Humidity 100    
Minimum Humidity 91    
Precipitation  
Precipitation 0.33 in - - ()
Sea Level Pressure  
Sea Level Pressure 29.85 in    
Wind  
Wind Speed 6 mph (SSW)    
Max Wind Speed 21 mph    
Max Gust Speed 29 mph    
Visibility 8 miles    
Events Fog , Rain    
Averages and records for this station are not official NWS values.
T = Trace of Precipitation, MM = Missing Value Source: NWS Daily Summary

Daily Weather History Graph

Daily Weather History Graph

Search for Another Location

Airport:

Trip Planner

Search our weather history database for the weather conditions in past years. The results will help you decide how hot, cold, wet, or windy it might be!

Date:

Astronomy

Jan. 08, 2014 Rise Set
Actual Time 7:55 AM PST 4:38 PM PST
Civil Twilight 7:20 AM PST 5:13 PM PST
Nautical Twilight 6:41 AM PST 5:51 PM PST
Astronomical Twilight 6:04 AM PST 6:28 PM PST
Moon 11:46 AM PST (1/8) 12:52 AM PST (1/8)
Length of Visible Light 9h 53m
Length of Day
8h 43m
First Quarter, 57% of the Moon is Illuminated
Jan 8
First Quarter
Jan 15
Full
Jan 23
Last Quarter
Jan 30
New
Feb 6
First Quarter

Hourly Weather History & Observations

Time (PST) Temp. Windchill Dew Point Humidity Pressure Visibility Wind Dir Wind Speed Gust Speed Precip Events Conditions
12:03 AM 42.8 °F - 42.8 °F 100% 30.02 in 10.0 mi South 2.3 mph - N/A   Overcast
12:48 AM 41.0 °F - 41.0 °F 100% 30.01 in 0.8 mi Calm Calm - N/A   Mostly Cloudy
12:53 AM 39.2 °F - 39.2 °F 100% 30.01 in 0.5 mi Calm Calm - N/A Fog Fog
12:58 AM 39.4 °F - 39.4 °F 100% 30.03 in 0.2 mi Calm Calm - N/A Fog Fog
1:08 AM 39.2 °F - 39.2 °F 100% 30.01 in 0.5 mi West 1.2 mph - N/A Fog Fog
1:13 AM 41.0 °F - 41.0 °F 100% 30.02 in 0.8 mi WSW 2.3 mph - N/A   Overcast
1:18 AM 41.0 °F - 41.0 °F 100% 30.01 in 1.0 mi Calm Calm - N/A   Overcast
1:28 AM 39.2 °F - 39.2 °F 100% 30.01 in 0.8 mi Calm Calm - N/A   Overcast
1:33 AM 39.2 °F - 39.2 °F 100% 30.01 in 1.0 mi Calm Calm - N/A   Overcast
1:38 AM 39.2 °F - 39.2 °F 100% 30.01 in 1.2 mi Calm Calm - N/A   Overcast
1:43 AM 39.2 °F - 39.2 °F 100% 30.01 in 1.8 mi Calm Calm - N/A   Overcast
1:48 AM 39.2 °F - 39.2 °F 100% 30.01 in 1.5 mi Calm Calm - N/A   Overcast
1:53 AM 39.2 °F - 39.2 °F 100% 30.01 in 1.5 mi NW 2.3 mph - N/A   Overcast
1:58 AM 41.0 °F - 41.0 °F 100% 30.03 in 2.5 mi WNW 2.3 mph - N/A   Overcast
2:03 AM 41.0 °F - 41.0 °F 100% 30.01 in 3.0 mi WNW 1.2 mph - N/A   Overcast
2:17 AM 41.0 °F - 41.0 °F 100% 30.02 in 5.0 mi Calm Calm - N/A   Overcast
2:39 AM 41.0 °F - 41.0 °F 100% 30.01 in 10.0 mi East 2.3 mph - N/A   Overcast
2:58 AM 41.4 °F - 41.4 °F 100% 30.03 in 10.0 mi Calm Calm - 0.00 in   Overcast
3:58 AM 41.4 °F - 41.4 °F 100% 30.02 in 9.0 mi Calm Calm - N/A   Overcast
4:55 AM 42.8 °F 39.3 °F 42.8 °F 100% 29.99 in 10.0 mi South 5.8 mph - N/A Rain Light Rain
4:58 AM 42.8 °F 39.3 °F 42.8 °F 100% 30.01 in 10.0 mi South 5.8 mph - 0.00 in Rain Light Rain
5:06 AM 42.8 °F 39.3 °F 42.8 °F 100% 29.98 in 10.0 mi South 5.8 mph - N/A   Overcast
5:46 AM 42.8 °F - 42.8 °F 100% 29.98 in 10.0 mi South 2.3 mph - N/A   Overcast
5:51 AM 42.8 °F 41.1 °F 42.8 °F 100% 29.98 in 10.0 mi South 3.5 mph - N/A   Overcast
5:56 AM 42.8 °F 41.1 °F 42.8 °F 100% 29.98 in 10.0 mi South 3.5 mph - N/A   Overcast
5:58 AM 43.2 °F 41.5 °F 43.2 °F 100% 30.00 in 10.0 mi South 3.5 mph - 0.00 in   Overcast
6:58 AM 45.3 °F 41.1 °F 45.3 °F 100% 29.98 in 10.0 mi SSW 8.1 mph - N/A   Overcast
7:58 AM 45.1 °F 42.0 °F 45.1 °F 100% 29.95 in 10.0 mi SSW 5.8 mph - 0.01 in   Overcast
8:50 AM 44.6 °F 42.2 °F 44.6 °F 100% 29.93 in 10.0 mi SSW 4.6 mph - N/A Rain Light Rain
8:58 AM 45.0 °F 43.5 °F 45.0 °F 100% 29.94 in 10.0 mi South 3.5 mph - 0.00 in Rain Light Rain
9:00 AM 44.6 °F 43.1 °F 44.6 °F 100% 29.92 in 10.0 mi SSW 3.5 mph - N/A   Overcast
9:34 AM 44.6 °F 42.2 °F 44.6 °F 100% 29.92 in 10.0 mi South 4.6 mph - N/A Rain Light Rain
9:58 AM 45.5 °F 43.2 °F 45.5 °F 100% 29.93 in 10.0 mi South 4.6 mph - 0.00 in Rain Light Rain
10:09 AM 46.4 °F 44.3 °F 46.4 °F 100% 29.91 in 10.0 mi South 4.6 mph - N/A   Overcast
10:58 AM 47.1 °F - 46.9 °F 99% 29.90 in 10.0 mi South 6.9 mph - 0.00 in   Mostly Cloudy
11:16 AM 48.2 °F - 48.2 °F 100% 29.87 in 10.0 mi South 8.1 mph - N/A Rain Light Rain
11:19 AM 48.2 °F - 48.2 °F 100% 29.87 in 10.0 mi South 9.2 mph - N/A   Overcast
11:25 AM 48.2 °F - 48.2 °F 100% 29.87 in 10.0 mi SSW 6.9 mph - N/A Rain Light Rain
11:44 AM 48.2 °F - 48.2 °F 100% 29.86 in 10.0 mi SSW 5.8 mph - N/A   Overcast
11:58 AM 48.7 °F - 48.6 °F 99% 29.87 in 10.0 mi South 5.8 mph - 0.00 in   Overcast
12:03 PM 48.2 °F - 48.2 °F 100% 29.85 in 10.0 mi South 4.6 mph - N/A   Overcast
12:13 PM 50.0 °F - 50.0 °F 100% 29.84 in 10.0 mi South 9.2 mph - N/A   Overcast
12:16 PM 50.0 °F - 50.0 °F 100% 29.84 in 10.0 mi South 8.1 mph - N/A Rain Light Rain
12:41 PM 50.0 °F - 50.0 °F 100% 29.81 in 10.0 mi South 9.2 mph - N/A Rain Light Rain
12:46 PM 50.0 °F - 50.0 °F 100% 29.81 in 10.0 mi South 8.1 mph - N/A   Overcast
12:58 PM 49.5 °F - 49.3 °F 99% 29.82 in 10.0 mi South 8.1 mph - 0.01 in   Overcast
12:59 PM 50.0 °F - 50.0 °F 100% 29.79 in 10.0 mi South 9.2 mph - N/A Rain Light Rain
1:58 PM 48.9 °F - 48.6 °F 99% 29.77 in 8.0 mi South 11.5 mph - 0.04 in Rain Light Rain
2:05 PM 50.0 °F - 48.2 °F 94% 29.75 in 10.0 mi South 9.2 mph - N/A   Overcast
2:08 PM 48.2 °F - 48.2 °F 100% 29.75 in 10.0 mi South 10.4 mph - N/A Rain Light Rain
2:33 PM 48.2 °F - 48.2 °F 100% 29.74 in 7.0 mi South 9.2 mph - N/A Rain Light Rain
2:43 PM 48.2 °F - 48.2 °F 100% 29.73 in 10.0 mi South 11.5 mph - N/A Rain Light Rain
2:58 PM 48.9 °F - 48.6 °F 99% 29.75 in 10.0 mi South 15.0 mph - 0.07 in Rain Light Rain
3:04 PM 48.2 °F - 48.2 °F 100% 29.73 in 9.0 mi South 16.1 mph 23.0 mph N/A   Overcast
3:11 PM 48.2 °F - 48.2 °F 100% 29.73 in 9.0 mi South 13.8 mph 23.0 mph N/A Rain Light Rain
3:54 PM 48.2 °F - 48.2 °F 100% 29.73 in 10.0 mi South 16.1 mph - N/A   Overcast
3:58 PM 48.2 °F - 48.0 °F 99% 29.75 in 10.0 mi South 18.4 mph 25.3 mph 0.05 in   Overcast
3:59 PM 48.2 °F - 48.2 °F 100% 29.73 in 10.0 mi South 18.4 mph 25.3 mph N/A Rain Light Rain
4:16 PM 48.2 °F - 48.2 °F 100% 29.73 in 8.0 mi SSW 12.7 mph - N/A   Light Drizzle
4:21 PM 48.2 °F - 48.2 °F 100% 29.73 in 8.0 mi SSW 11.5 mph - N/A Rain Light Rain
4:31 PM 48.2 °F - 48.2 °F 100% 29.73 in 10.0 mi South 13.8 mph - N/A   Mostly Cloudy
4:58 PM 46.9 °F - 46.8 °F 99% 29.75 in 10.0 mi South 12.7 mph - 0.01 in   Mostly Cloudy
5:06 PM 46.4 °F 40.7 °F 46.4 °F 100% 29.73 in 10.0 mi South 12.7 mph - N/A Rain Light Rain
5:22 PM 46.4 °F 40.4 °F 46.4 °F 100% 29.73 in 10.0 mi South 13.8 mph - N/A   Mostly Cloudy
5:26 PM 46.4 °F 40.7 °F 46.4 °F 100% 29.74 in 10.0 mi SSW 12.7 mph - N/A Rain Light Rain
5:46 PM 48.2 °F - 46.4 °F 93% 29.74 in 7.0 mi SSW 16.1 mph 27.6 mph N/A Rain Rain
5:51 PM 46.4 °F 39.5 °F 46.4 °F 100% 29.74 in 8.0 mi South 17.3 mph 28.8 mph N/A Rain Light Rain
5:58 PM 47.3 °F - 46.9 °F 99% 29.76 in 10.0 mi South 13.8 mph 28.8 mph 0.08 in Rain Light Rain
6:08 PM 46.4 °F 40.1 °F 46.4 °F 100% 29.73 in 10.0 mi South 15.0 mph 20.7 mph N/A Rain Light Rain
6:13 PM 46.4 °F 38.7 °F 46.4 °F 100% 29.73 in 10.0 mi South 20.7 mph 23.0 mph N/A Rain Light Rain
6:21 PM 46.4 °F 39.5 °F 46.4 °F 100% 29.73 in 10.0 mi South 17.3 mph 24.2 mph N/A   Mostly Cloudy
6:26 PM 46.4 °F 39.8 °F 46.4 °F 100% 29.73 in 10.0 mi South 16.1 mph - N/A Rain Light Rain
6:50 PM 44.6 °F 37.8 °F 44.6 °F 100% 29.73 in 10.0 mi South 15.0 mph 23.0 mph N/A   Mostly Cloudy
6:55 PM 44.6 °F 37.4 °F 44.6 °F 100% 29.73 in 10.0 mi South 16.1 mph - N/A   Mostly Cloudy
6:58 PM 45.3 °F 38.4 °F 45.1 °F 99% 29.75 in 10.0 mi South 16.1 mph - 0.01 in   Overcast
7:48 PM 44.6 °F 39.2 °F 44.6 °F 100% 29.75 in 10.0 mi SSW 10.4 mph - N/A   Overcast
7:53 PM 46.4 °F 41.5 °F 44.6 °F 93% 29.75 in 9.0 mi South 10.4 mph - N/A Rain Light Rain
7:55 PM 46.4 °F 41.5 °F 44.6 °F 93% 29.75 in 9.0 mi SSW 10.4 mph - N/A Rain Light Rain
7:58 PM 45.5 °F 40.8 °F 45.3 °F 99% 29.75 in 8.0 mi SSW 9.2 mph - 0.00 in Rain Light Rain
8:10 PM 44.6 °F 38.8 °F 44.6 °F 100% 29.76 in 9.0 mi South 11.5 mph - N/A Rain Light Rain
8:25 PM 44.6 °F 39.2 °F 44.6 °F 100% 29.77 in 6.0 mi SW 10.4 mph - N/A Rain Light Rain
8:27 PM 44.6 °F 39.2 °F 44.6 °F 100% 29.77 in 6.0 mi SW 10.4 mph - N/A Rain Light Rain
8:41 PM 44.6 °F 38.4 °F 44.6 °F 100% 29.77 in 9.0 mi South 12.7 mph - N/A   Overcast
8:45 PM 44.6 °F 37.8 °F 44.6 °F 100% 29.77 in 9.0 mi South 15.0 mph - N/A Rain Light Rain
8:46 PM 44.6 °F 37.8 °F 44.6 °F 100% 29.77 in 9.0 mi South 15.0 mph - N/A Rain Light Rain
8:58 PM 45.1 °F 38.4 °F 45.0 °F 99% 29.77 in 10.0 mi SSW 15.0 mph 23.0 mph 0.05 in Rain Light Rain
9:07 PM 44.6 °F 37.8 °F 44.6 °F 100% 29.78 in 10.0 mi SSW 15.0 mph - N/A   Mostly Cloudy
9:12 PM 44.6 °F 37.8 °F 44.6 °F 100% 29.78 in 10.0 mi SSW 15.0 mph - N/A   Overcast
9:14 PM 44.6 °F 38.1 °F 44.6 °F 100% 29.78 in 10.0 mi SSW 13.8 mph - N/A Rain Light Rain
9:31 PM 44.6 °F 38.8 °F 44.6 °F 100% 29.79 in 10.0 mi South 11.5 mph - N/A   Overcast
9:36 PM 44.6 °F 38.8 °F 44.6 °F 100% 29.80 in 10.0 mi SSW 11.5 mph - N/A   Overcast
9:46 PM 44.6 °F 39.2 °F 44.6 °F 100% 29.80 in 10.0 mi SSW 10.4 mph - N/A   Overcast
9:56 PM 44.6 °F 38.4 °F 44.6 °F 100% 29.80 in 10.0 mi SSW 12.7 mph - N/A   Overcast
9:58 PM 44.8 °F 38.7 °F 44.8 °F 100% 29.80 in 10.0 mi SSW 12.7 mph - 0.00 in   Overcast
10:23 PM 44.6 °F 37.8 °F 44.6 °F 100% 29.82 in 10.0 mi SW 15.0 mph 20.7 mph N/A   Overcast
10:28 PM 44.6 °F 37.8 °F 44.6 °F 100% 29.82 in 10.0 mi SW 15.0 mph 25.3 mph N/A   Overcast
10:38 PM 44.6 °F 37.2 °F 44.6 °F 100% 29.83 in 10.0 mi SW 17.3 mph 28.8 mph N/A   Overcast
10:43 PM 44.6 °F 37.2 °F 44.6 °F 100% 29.83 in 10.0 mi SW 17.3 mph 28.8 mph N/A   Overcast
10:58 PM 44.2 °F 37.3 °F 43.7 °F 98% 29.85 in 10.0 mi SW 15.0 mph - N/A   Scattered Clouds
11:58 PM 43.5 °F 35.8 °F 41.2 °F 91% 29.89 in 10.0 mi SSW 17.3 mph - N/A   Clear